ATLAS CENTAUR R/B (6155 NORAD) Tracking and Keplerian Element Data

This shows tracking and keplerian element data for the satellite.

Feedback or suggestion? Click here.




ElementValue
Catalog6155
NameATLAS CENTAUR R/B
Epoch Orbit63866
Epoch Day16.03461259
Epoch Year2022
RAAN128.7463
Inclination35.0037
Eccentricity0.0038403
Argument of Perigee298.6124
Mean Anonmoly61.0714
Mean Motion14.71786096
Decay Rate3.79E-06
L11 06155U 72065B 22016.03461259 .00000379 00000+0 62667-4 0 9997
L22 06155 35.0037 128.7463 0038403 298.6124 61.0714 14.71786096638665

Live tracking and technical data element details for ATLAS CENTAUR R/B (NORAD 6155). ATLAS CENTAUR R/B can be tracked NOW for your location showing map with azimuth and elevation plus other details from your city location.

Track the satellite on the map from your city or location and see movement details for azimuth, elevation, latitude, longitude, range, height, and movement on the map or in text.







IsCatalogInMostPopularTable: catalog: 6155, numindb: 336
Update: records affected: 1



GetName: 6155 ATLAS CENTAUR R/B

Hit Count: updated at: Mon, 17 Jan 2022 01:00:23 GMT